AFL142 UMMS-UUEE

Flight info

Callsign AFL142
Flight time 1h 2m
Altitude 31000
Route AGNE2F AGNEF N869 RATIN L999 AGLAN M864 DIPOP DIPO3F
Aircraft A333/M-SDFGRYZ/S

Departure

Time 2026-05-08 06:10
Airport Minsk National Airport (UMMS)

Arrival

Time 2026-05-08 07:12
Airport Sheremetyevo International Airport (UUEE)
Time Latitude Longitude Altitude Speed Heading
2026-05-08 05:52 53.88766 28.03631 657 ft 0 kts 319°
2026-05-08 06:03 53.88767 28.03630 657 ft 0 kts 319°
2026-05-08 06:03 53.88772 28.03622 657 ft 1 kts 319°
2026-05-08 06:04 53.88785 28.03605 657 ft 3 kts 327°
2026-05-08 06:04 53.88837 28.03611 657 ft 11 kts 33°
2026-05-08 06:04 53.88910 28.03722 658 ft 14 kts 58°
2026-05-08 06:04 53.88892 28.03878 660 ft 13 kts 121°
2026-05-08 06:05 53.88840 28.03998 663 ft 11 kts 133°
2026-05-08 06:05 53.88816 28.04105 665 ft 9 kts 68°
2026-05-08 06:05 53.88853 28.04193 667 ft 10 kts 50°
2026-05-08 06:05 53.88913 28.04308 669 ft 14 kts 49°
2026-05-08 06:06 53.88986 28.04449 674 ft 18 kts 49°
2026-05-08 06:06 53.89088 28.04644 681 ft 25 kts 49°
2026-05-08 06:06 53.89174 28.04909 691 ft 26 kts 114°
2026-05-08 06:06 53.89035 28.05138 691 ft 30 kts 139°
2026-05-08 06:07 53.88870 28.05381 691 ft 32 kts 138°
2026-05-08 06:07 53.88698 28.05636 693 ft 33 kts 139°
2026-05-08 06:07 53.88516 28.05906 695 ft 34 kts 140°
2026-05-08 06:07 53.88336 28.06171 700 ft 33 kts 139°
2026-05-08 06:08 53.88158 28.06435 694 ft 35 kts 139°
2026-05-08 06:08 53.87989 28.06690 685 ft 27 kts 138°
2026-05-08 06:08 53.87960 28.06883 677 ft 13 kts 58°
2026-05-08 06:08 53.88020 28.06992 674 ft 11 kts 28°
2026-05-08 06:09 53.88067 28.06970 676 ft 0 kts 322°
2026-05-08 06:09 53.88071 28.06964 677 ft 6 kts 321°
2026-05-08 06:09 53.88305 28.06628 692 ft 86 kts 319°
2026-05-08 06:10 53.88960 28.05664 704 ft 161 kts 323°
2026-05-08 06:10 53.89881 28.04311 1242 ft 179 kts 324°
2026-05-08 06:10 53.90798 28.02890 1864 ft 181 kts 325°
2026-05-08 06:10 53.91723 28.01511 2471 ft 183 kts 327°
2026-05-08 06:11 53.92689 28.00085 3058 ft 190 kts 325°
2026-05-08 06:11 53.93795 27.98421 3522 ft 238 kts 323°
2026-05-08 06:11 53.95200 27.96686 4256 ft 266 kts 335°
2026-05-08 06:11 53.96928 27.95926 5036 ft 262 kts
2026-05-08 06:12 53.98706 27.96629 5709 ft 267 kts 23°
2026-05-08 06:12 54.00461 27.97696 6351 ft 277 kts 17°
2026-05-08 06:12 54.02320 27.98702 7006 ft 286 kts 18°
2026-05-08 06:12 54.04209 27.99887 7644 ft 296 kts 30°
2026-05-08 06:13 54.05727 28.02202 8268 ft 304 kts 55°
2026-05-08 06:13 54.06589 28.05492 8918 ft 311 kts 79°
2026-05-08 06:13 54.06589 28.09203 9566 ft 318 kts 99°
2026-05-08 06:13 54.06393 28.12935 10209 ft 326 kts 93°
2026-05-08 06:14 54.06338 28.16850 10838 ft 335 kts 92°
2026-05-08 06:14 54.06311 28.20865 11477 ft 344 kts 91°
2026-05-08 06:14 54.06467 28.24965 12096 ft 352 kts 84°
2026-05-08 06:14 54.06721 28.29120 12730 ft 359 kts 85°
2026-05-08 06:15 54.06973 28.33308 13343 ft 365 kts 86°
2026-05-08 06:15 54.07277 28.37617 13964 ft 371 kts 79°
2026-05-08 06:15 54.08233 28.41697 14575 ft 379 kts 59°
2026-05-08 06:15 54.09664 28.45504 15070 ft 387 kts 59°
2026-05-08 06:16 54.11116 28.49421 15507 ft 397 kts 54°
2026-05-08 06:16 54.13073 28.52762 15943 ft 405 kts 36°
2026-05-08 06:16 54.15582 28.55020 16403 ft 411 kts 20°
2026-05-08 06:16 54.18203 28.56957 16855 ft 418 kts 23°
2026-05-08 06:17 54.23571 28.61097 17751 ft 428 kts 23°
2026-05-08 06:17 54.26294 28.63207 18189 ft 433 kts 23°
2026-05-08 06:17 54.29012 28.65317 18623 ft 438 kts 24°
2026-05-08 06:18 54.31806 28.67489 19080 ft 442 kts 24°
2026-05-08 06:18 54.34622 28.69683 19535 ft 446 kts 24°
2026-05-08 06:18 54.37416 28.71863 19984 ft 449 kts 24°
2026-05-08 06:18 54.40243 28.74073 20432 ft 448 kts 24°
2026-05-08 06:19 54.43093 28.76301 20890 ft 450 kts 24°
2026-05-08 06:19 54.45927 28.78611 21346 ft 453 kts 28°
2026-05-08 06:19 54.48407 28.81910 21747 ft 456 kts 46°
2026-05-08 06:19 54.50266 28.86296 22227 ft 457 kts 63°
2026-05-08 06:20 54.51620 28.91208 22850 ft 454 kts 65°
2026-05-08 06:20 54.52976 28.96070 23425 ft 452 kts 65°
2026-05-08 06:20 54.54334 29.00910 23993 ft 451 kts 64°
2026-05-08 06:20 54.55696 29.05754 24606 ft 450 kts 65°
2026-05-08 06:21 54.57037 29.10529 25198 ft 449 kts 65°
2026-05-08 06:21 54.58387 29.15348 25814 ft 448 kts 65°
2026-05-08 06:21 54.59733 29.20164 26445 ft 447 kts 64°
2026-05-08 06:21 54.61074 29.24967 27094 ft 445 kts 65°
2026-05-08 06:22 54.62406 29.29744 27726 ft 443 kts 65°
2026-05-08 06:22 54.63730 29.34512 28356 ft 442 kts 65°
2026-05-08 06:22 54.65050 29.39270 28985 ft 440 kts 65°
2026-05-08 06:22 54.66361 29.44009 29608 ft 438 kts 65°
2026-05-08 06:23 54.67742 29.48612 30228 ft 437 kts 57°
2026-05-08 06:23 54.69573 29.52762 30866 ft 434 kts 51°
2026-05-08 06:23 54.71418 29.56849 31073 ft 442 kts 51°
2026-05-08 06:23 54.73342 29.61125 30984 ft 457 kts 52°
2026-05-08 06:24 54.75289 29.65472 31110 ft 466 kts 52°
2026-05-08 06:24 54.77319 29.70007 31022 ft 480 kts 52°
2026-05-08 06:24 54.81451 29.79275 31059 ft 500 kts 52°
2026-05-08 06:25 54.85770 29.88994 31084 ft 515 kts 52°
2026-05-08 06:25 54.90179 29.98961 31030 ft 527 kts 52°
2026-05-08 06:26 54.94659 30.09128 31036 ft 533 kts 52°
2026-05-08 06:26 54.99125 30.19300 31233 ft 530 kts 52°
2026-05-08 06:27 55.01374 30.24444 31089 ft 531 kts 53°
2026-05-08 06:27 55.03558 30.29445 30890 ft 514 kts 52°
2026-05-08 06:27 55.05689 30.34338 31186 ft 502 kts 52°
2026-05-08 06:27 55.07798 30.39184 31030 ft 510 kts 52°
2026-05-08 06:28 55.12043 30.48975 31130 ft 509 kts 52°
2026-05-08 06:28 55.14176 30.53911 30994 ft 509 kts 52°
2026-05-08 06:28 55.16269 30.58761 31109 ft 507 kts 51°
2026-05-08 06:29 55.20536 30.68681 31042 ft 509 kts 53°
2026-05-08 06:29 55.24784 30.78600 31020 ft 511 kts 52°
2026-05-08 06:30 55.28524 30.89015 31047 ft 513 kts 69°
2026-05-08 06:30 55.30819 31.00828 31080 ft 513 kts 72°
2026-05-08 06:31 55.33063 31.12611 31083 ft 512 kts 72°
2026-05-08 06:31 55.35311 31.24483 31039 ft 514 kts 72°
2026-05-08 06:32 55.37529 31.36281 31050 ft 514 kts 72°
2026-05-08 06:32 55.39752 31.48188 31111 ft 513 kts 72°
2026-05-08 06:33 55.41963 31.60101 31066 ft 512 kts 72°
2026-05-08 06:33 55.44154 31.71989 31023 ft 514 kts 72°
2026-05-08 06:34 55.46334 31.83889 31074 ft 514 kts 72°
2026-05-08 06:34 55.48512 31.95853 31101 ft 515 kts 72°
2026-05-08 06:35 55.50678 32.07830 31053 ft 513 kts 72°
2026-05-08 06:35 55.52829 32.19799 31031 ft 516 kts 72°
2026-05-08 06:36 55.54959 32.31731 31077 ft 514 kts 72°
2026-05-08 06:36 55.57099 32.43798 31096 ft 514 kts 72°
2026-05-08 06:37 55.59209 32.55777 31039 ft 515 kts 72°
2026-05-08 06:37 55.61327 32.67870 31026 ft 515 kts 73°
2026-05-08 06:38 55.63422 32.79925 31091 ft 517 kts 73°
2026-05-08 06:38 55.65499 32.91956 31086 ft 514 kts 73°
2026-05-08 06:39 55.67571 33.04039 31023 ft 515 kts 72°
2026-05-08 06:39 55.69643 33.16198 31024 ft 519 kts 72°
2026-05-08 06:40 55.71698 33.28345 31084 ft 517 kts 73°
2026-05-08 06:40 55.73734 33.40462 31073 ft 514 kts 73°
2026-05-08 06:41 55.75762 33.52624 31032 ft 516 kts 72°
2026-05-08 06:41 55.77781 33.64814 31035 ft 517 kts 72°
2026-05-08 06:42 55.79787 33.77001 31081 ft 516 kts 73°
2026-05-08 06:42 55.81782 33.89211 31074 ft 515 kts 73°
2026-05-08 06:43 55.83771 34.01474 31041 ft 525 kts 73°
2026-05-08 06:43 55.85791 34.14017 31066 ft 536 kts 73°
2026-05-08 06:44 55.87832 34.26781 31105 ft 537 kts 73°
2026-05-08 06:44 55.89299 34.39716 31036 ft 533 kts 88°
2026-05-08 06:45 55.89560 34.52918 30806 ft 538 kts 88°
2026-05-08 06:45 55.89682 34.59481 30331 ft 532 kts 88°
2026-05-08 06:45 55.89798 34.65964 29945 ft 527 kts 89°
2026-05-08 06:46 55.89912 34.72487 29562 ft 524 kts 89°
2026-05-08 06:46 55.90021 34.78890 29149 ft 521 kts 89°
2026-05-08 06:46 55.90126 34.85321 28738 ft 518 kts 89°
2026-05-08 06:46 55.90226 34.91656 28333 ft 514 kts 89°
2026-05-08 06:47 55.90324 34.97944 27930 ft 512 kts 89°
2026-05-08 06:47 55.90418 35.04297 27481 ft 511 kts 89°
2026-05-08 06:47 55.90512 35.10582 27014 ft 511 kts 89°
2026-05-08 06:47 55.90604 35.16850 26558 ft 507 kts 89°
2026-05-08 06:48 55.90691 35.23046 26105 ft 503 kts 89°
2026-05-08 06:48 55.90776 35.29256 25651 ft 500 kts 89°
2026-05-08 06:48 55.90856 35.35428 25199 ft 497 kts 89°
2026-05-08 06:48 55.90932 35.41494 24752 ft 494 kts 89°
2026-05-08 06:49 55.91007 35.47628 24306 ft 490 kts 89°
2026-05-08 06:49 55.91076 35.53606 23878 ft 489 kts 89°
2026-05-08 06:49 55.91143 35.59631 23448 ft 484 kts 89°
2026-05-08 06:49 55.91206 35.65634 23020 ft 482 kts 90°
2026-05-08 06:50 55.91267 35.71553 22591 ft 478 kts 90°
2026-05-08 06:50 55.91323 35.77453 22168 ft 476 kts 90°
2026-05-08 06:50 55.91378 35.83269 21740 ft 472 kts 90°
2026-05-08 06:50 55.91715 35.89072 21306 ft 471 kts 82°
2026-05-08 06:51 55.92169 35.94852 20873 ft 468 kts 83°
2026-05-08 06:51 55.92606 36.00552 20458 ft 464 kts 83°
2026-05-08 06:51 55.93031 36.06151 20038 ft 461 kts 83°
2026-05-08 06:51 55.93734 36.11678 19578 ft 458 kts 69°
2026-05-08 06:52 55.95257 36.16629 19142 ft 452 kts 51°
2026-05-08 06:52 55.97438 36.20482 18707 ft 445 kts 33°
2026-05-08 06:52 56.00117 36.23083 18290 ft 436 kts 19°
2026-05-08 06:52 56.02837 36.25418 17867 ft 439 kts 29°
2026-05-08 06:53 56.05096 36.28991 17448 ft 439 kts 47°
2026-05-08 06:53 56.06647 36.33478 16865 ft 414 kts 66°
2026-05-08 06:53 56.07859 36.37951 16458 ft 385 kts 52°
2026-05-08 06:53 56.09624 36.41262 16026 ft 358 kts 33°
2026-05-08 06:54 56.11528 36.43900 15523 ft 344 kts 34°
2026-05-08 06:54 56.13360 36.46560 15019 ft 338 kts 34°
2026-05-08 06:54 56.15159 36.49211 14541 ft 335 kts 35°
2026-05-08 06:54 56.16948 36.51874 14052 ft 332 kts 35°
2026-05-08 06:55 56.18698 36.54490 13569 ft 330 kts 35°
2026-05-08 06:55 56.20454 36.57121 13077 ft 327 kts 35°
2026-05-08 06:55 56.22197 36.59738 12641 ft 328 kts 35°
2026-05-08 06:55 56.23931 36.62346 12227 ft 331 kts 35°
2026-05-08 06:56 56.25708 36.65023 11729 ft 336 kts 36°
2026-05-08 06:56 56.27504 36.67730 11227 ft 339 kts 36°
2026-05-08 06:56 56.29272 36.70475 10740 ft 342 kts 42°
2026-05-08 06:56 56.30613 36.74052 10221 ft 350 kts 65°
2026-05-08 06:57 56.31152 36.78238 9624 ft 344 kts 87°
2026-05-08 06:57 56.31027 36.82426 9105 ft 327 kts 104°
2026-05-08 06:57 56.30268 36.86180 8623 ft 312 kts 118°
2026-05-08 06:57 56.29324 36.89570 8121 ft 303 kts 119°
2026-05-08 06:58 56.28355 36.92869 7606 ft 295 kts 120°
2026-05-08 06:58 56.27396 36.96079 7165 ft 286 kts 120°
2026-05-08 06:58 56.26475 36.99151 6961 ft 282 kts 119°
2026-05-08 06:58 56.25531 37.02295 6622 ft 287 kts 119°
2026-05-08 06:59 56.24587 37.05430 6305 ft 290 kts 119°
2026-05-08 06:59 56.23613 37.08660 5998 ft 298 kts 118°
2026-05-08 06:59 56.22617 37.11962 5655 ft 299 kts 118°
2026-05-08 06:59 56.21624 37.15246 5331 ft 299 kts 118°
2026-05-08 07:00 56.20640 37.18498 5021 ft 298 kts 118°
2026-05-08 07:00 56.19673 37.21689 5024 ft 291 kts 118°
2026-05-08 07:00 56.18699 37.24899 5018 ft 293 kts 118°
2026-05-08 07:00 56.17733 37.28081 4994 ft 290 kts 118°
2026-05-08 07:01 56.16771 37.31279 5021 ft 291 kts 115°
2026-05-08 07:01 56.16299 37.34806 4978 ft 289 kts 88°
2026-05-08 07:01 56.16654 37.38275 5035 ft 287 kts 71°
2026-05-08 07:01 56.17197 37.41730 4594 ft 285 kts 72°
2026-05-08 07:02 56.17700 37.45065 4211 ft 272 kts 72°
2026-05-08 07:02 56.18182 37.48275 3860 ft 260 kts 72°
2026-05-08 07:02 56.18643 37.51345 3565 ft 255 kts 71°
2026-05-08 07:02 56.19103 37.54411 3256 ft 259 kts 71°
2026-05-08 07:03 56.19314 37.57632 3043 ft 260 kts 97°
2026-05-08 07:03 56.18635 37.60396 3538 ft 238 kts 124°
2026-05-08 07:03 56.17885 37.61988 3446 ft 235 kts 130°
2026-05-08 07:04 56.17147 37.63475 3470 ft 230 kts 139°
2026-05-08 07:04 56.16058 37.65494 3512 ft 220 kts 141°
2026-05-08 07:04 56.15023 37.67403 3661 ft 213 kts 141°
2026-05-08 07:04 56.13947 37.69365 3467 ft 218 kts 140°
2026-05-08 07:05 56.12913 37.71265 3508 ft 213 kts 141°
2026-05-08 07:05 56.11865 37.73181 3504 ft 215 kts 141°
2026-05-08 07:05 56.10833 37.75069 3499 ft 214 kts 141°
2026-05-08 07:05 56.09716 37.76795 3472 ft 206 kts 160°
2026-05-08 07:06 56.08380 37.77190 3496 ft 186 kts 199°
2026-05-08 07:06 56.07167 37.76560 3532 ft 184 kts 205°
2026-05-08 07:06 56.05944 37.75887 3377 ft 186 kts 206°
2026-05-08 07:06 56.04729 37.75209 3161 ft 175 kts 206°
2026-05-08 07:07 56.03592 37.74565 3215 ft 172 kts 207°
2026-05-08 07:07 56.02466 37.73879 3130 ft 172 kts 213°
2026-05-08 07:07 56.01723 37.72459 2930 ft 147 kts 256°
2026-05-08 07:07 56.01485 37.70749 3042 ft 142 kts 257°
2026-05-08 07:08 56.01226 37.69043 2982 ft 142 kts 257°
2026-05-08 07:08 56.00973 37.67338 3009 ft 141 kts 258°
2026-05-08 07:08 56.00723 37.65648 3003 ft 141 kts 258°
2026-05-08 07:08 56.00473 37.63951 2988 ft 142 kts 257°
2026-05-08 07:09 56.00223 37.62260 2838 ft 139 kts 258°
2026-05-08 07:09 55.99975 37.60584 2615 ft 138 kts 258°
2026-05-08 07:09 55.99731 37.58937 2421 ft 136 kts 258°
2026-05-08 07:09 55.99494 37.57330 2333 ft 133 kts 257°
2026-05-08 07:10 55.99249 37.55774 2100 ft 129 kts 257°
2026-05-08 07:10 55.99005 37.54212 1895 ft 130 kts 258°
2026-05-08 07:10 55.98786 37.52661 1724 ft 128 kts 258°
2026-05-08 07:10 55.98558 37.51123 1511 ft 129 kts 257°
2026-05-08 07:11 55.98330 37.49586 1320 ft 127 kts 258°
2026-05-08 07:11 55.98106 37.48038 1098 ft 128 kts 258°
2026-05-08 07:11 55.97879 37.46510 904 ft 128 kts 258°
2026-05-08 07:11 55.97654 37.44981 714 ft 128 kts 258°
2026-05-08 07:12 55.97429 37.43465 615 ft 121 kts 257°
2026-05-08 07:12 55.97292 37.42528 609 ft 51 kts 256°
2026-05-08 07:12 55.97206 37.41948 618 ft 45 kts 255°
2026-05-08 07:12 55.97149 37.41559 620 ft 23 kts 256°
2026-05-08 07:13 55.97187 37.41336 621 ft 20 kts 336°
2026-05-08 07:13 55.97317 37.41267 623 ft 18 kts 346°
2026-05-08 07:13 55.97427 37.41216 625 ft 15 kts 345°
2026-05-08 07:13 55.97521 37.41169 627 ft 12 kts 348°
2026-05-08 07:14 55.97574 37.41147 627 ft 0 kts 347°
2026-05-08 07:14 55.97575 37.41146 627 ft 1 kts 347°
2026-05-08 07:15 55.97604 37.41149 627 ft 6 kts 19°
2026-05-08 07:15 55.97644 37.41254 627 ft 14 kts 73°
2026-05-08 07:15 55.97688 37.41435 627 ft 16 kts 28°
2026-05-08 07:15 55.97795 37.41424 627 ft 14 kts 341°
2026-05-08 07:16 55.97841 37.41425 627 ft 6 kts 31°
2026-05-08 07:16 55.97879 37.41505 627 ft 10 kts 63°
2026-05-08 07:16 55.97889 37.41573 627 ft 2 kts 77°
2026-05-08 07:16 55.97897 37.41622 627 ft 5 kts 77°
2026-05-08 07:17 55.97899 37.41637 627 ft 0 kts 77°